User: anonymous   Login
Location: M.A.R.S.Observatory
(35.4031°N, 81.5481°W)
Time: 20:38:40
(UTC-04:00)
Language:

SL-8 R/B - Orbit

View from above orbital plane
View from above orbital plane
View from above satellite
View from above satellite

Ground track
Ground track

The orbit data is extracted from the following two-line orbital elements,

1 33066U 08031G   17205.55288076 -.00000081 +00000-0 +19251-4 0  9998
2 33066 048.4442 295.6211 0008237 272.7148 169.9127 14.69550851488204
Epoch (UTC): 24 July 2017 13:16:08
Eccentricity: 0.0008237
inclination: 48.4442°
perigee height: 657 km
apogee height: 668 km
right ascension of ascending node: 295.6211°
argument of perigee: 272.7148°
revolutions per day: 14.69550851
mean anomaly at epoch: 169.9127°
orbit number at epoch: 48820

The dashed part of the orbit path shows where the satellite is in the earth's shadow,  

DLR